Date String (YYYY-MM-DD hh:mm:ss) UTC,Instrument flags,absolute air pressure of the measurement (hPa),sample flow rate (lpm),inlet stack bypass flow (lpm),air temperature of the measurement (°C),ambient temperature measured by the external sensor (°C),aerosol sample conditioner tube jacket temperature (°C),OPC LED temperature (°C),internal box temperature (°C),relative humidity of the measurement (%),span deviation,mass concentration of particles derived from Lorenz-Mie calculation of OPC scattering (μg/m³),mass concentration of particles derived from Lorenz-Mie calculation of OPC scattering (μg/m³),mass concentration of particles derived from Lorenz-Mie calculation of OPC scattering (μg/m³)
DateTimeUTC,F1_M11,P_M11,Q1_M11,Q2_M11,T1_M11,T2_M11,T3_M11,T4_M11,T5_M11,U1_M11,ZSPAN_M11,X2_M11,X0_M11,X1_M11
2024-06-02 00:00:00,SystemResetWarning,0825.7,5.00,000.00,029.0,027.5,000.0,037.5,030.5,016.0,0000.0,0003.50,0008.31,0002.49
2024-06-02 00:01:00,SystemResetWarning,0825.7,5.00,000.00,029.0,027.8,000.0,037.4,030.7,016.0,0000.0,0003.49,0008.38,0002.49
2024-06-02 00:02:00,SystemResetWarning,0825.7,5.00,000.00,029.1,028.1,000.0,037.4,030.8,015.5,0000.0,0003.52,0008.12,0002.50
2024-06-02 00:03:00,SystemResetWarning,0825.7,5.00,000.00,029.2,028.3,000.0,037.4,031.0,015.8,0000.0,0003.54,0007.99,0002.50
2024-06-02 00:04:00,SystemResetWarning,0825.7,5.00,000.00,029.3,028.6,000.0,037.4,031.1,016.2,0000.0,0003.57,0008.16,0002.51
2024-06-02 00:05:00,SystemResetWarning,0825.7,4.99,000.00,029.3,028.7,000.0,037.5,031.2,017.3,0000.0,0003.65,0008.93,0002.51
2024-06-02 00:06:00,SystemResetWarning,0825.6,4.99,000.00,029.4,028.9,000.0,037.5,031.2,016.9,0000.0,0003.69,0009.67,0002.52
2024-06-02 00:07:00,SystemResetWarning,0825.6,5.00,000.00,029.5,029.0,000.0,037.6,031.3,016.9,0000.0,0003.70,0010.47,0002.52
2024-06-02 00:08:00,SystemResetWarning,0825.6,5.01,000.00,029.6,029.2,000.0,037.6,031.4,017.4,0000.0,0003.69,0011.50,0002.53
2024-06-02 00:09:00,SystemResetWarning,0825.6,5.01,000.00,029.7,029.3,000.0,037.7,031.5,017.2,0000.0,0003.72,0011.84,0002.52
2024-06-02 00:10:00,SystemResetWarning,0825.5,5.00,000.00,029.7,029.4,000.0,037.7,031.6,016.3,0000.0,0003.69,0011.94,0002.51
2024-06-02 00:11:00,SystemResetWarning,0825.6,4.99,000.00,029.8,029.5,000.0,037.7,031.7,015.3,0000.0,0003.64,0011.81,0002.48
2024-06-02 00:12:00,SystemResetWarning,0825.5,4.99,000.00,029.9,029.3,000.0,037.8,031.6,016.1,0000.0,0003.66,0012.15,0002.49
2024-06-02 00:13:00,SystemResetWarning,0825.4,5.00,000.00,029.6,027.2,000.0,037.9,030.6,016.5,0000.0,0003.67,0013.23,0002.48
2024-06-02 00:14:00,SystemResetWarning,0825.4,5.01,000.00,029.3,026.5,000.0,037.9,030.3,016.5,0000.0,0003.67,0013.80,0002.48
2024-06-02 00:15:00,SystemResetWarning,0825.4,5.01,000.00,029.3,026.9,000.0,037.8,030.4,016.5,0000.0,0003.68,0013.79,0002.48
2024-06-02 00:16:00,SystemResetWarning,0825.4,5.00,000.00,029.3,027.3,000.0,037.8,030.6,016.8,0000.0,0003.66,0013.25,0002.49
2024-06-02 00:17:00,SystemResetWarning,0825.5,5.00,000.00,029.3,027.7,000.0,037.7,030.8,017.0,0000.0,0003.64,0012.96,0002.48
2024-06-02 00:18:00,SystemResetWarning,0825.5,5.00,000.00,029.4,028.0,000.0,037.7,031.0,017.0,0000.0,0003.63,0012.51,0002.48
2024-06-02 00:19:00,SystemResetWarning,0825.6,4.99,000.00,029.4,028.3,000.0,037.7,031.1,017.1,0000.0,0003.66,0011.88,0002.48
2024-06-02 00:20:00,SystemResetWarning,0825.5,5.00,000.00,029.5,028.6,000.0,037.7,031.2,016.4,0000.0,0003.63,0011.56,0002.46
2024-06-02 00:21:00,SystemResetWarning,0825.6,5.00,000.00,029.5,028.8,000.0,037.7,031.3,016.3,0000.0,0003.58,0012.26,0002.45
2024-06-02 00:22:00,SystemResetWarning,0825.6,5.00,000.00,029.6,029.0,000.0,037.7,031.4,016.7,0000.0,0003.58,0013.56,0002.45
2024-06-02 00:23:00,SystemResetWarning,0825.6,5.00,000.00,029.7,029.1,000.0,037.8,031.5,017.2,0000.0,0003.58,0013.68,0002.44
2024-06-02 00:24:00,SystemResetWarning,0825.6,5.01,000.00,029.8,029.3,000.0,037.8,031.6,016.8,0000.0,0003.59,0013.58,0002.44
2024-06-02 00:25:00,SystemResetWarning,0825.6,5.01,000.00,029.8,029.4,000.0,037.8,031.7,016.4,0000.0,0003.59,0013.68,0002.44
2024-06-02 00:26:00,SystemResetWarning,0825.6,4.98,000.00,029.9,029.1,000.0,037.9,031.5,016.2,0000.0,0003.58,0014.13,0002.44
2024-06-02 00:27:00,SystemResetWarning,0825.5,5.00,000.00,029.6,026.7,000.0,038.0,030.3,016.9,0000.0,0003.56,0014.69,0002.43
2024-06-02 00:28:00,SystemResetWarning,0825.4,5.01,000.00,029.1,025.2,000.0,038.0,029.6,017.7,0000.0,0003.55,0014.59,0002.42
2024-06-02 00:29:00,SystemResetWarning,0825.5,5.01,000.00,028.9,025.8,000.0,037.9,029.7,018.0,0000.0,0003.52,0015.26,0002.40
2024-06-02 00:30:00,SystemResetWarning,0825.6,4.99,000.00,028.9,026.3,000.0,037.7,030.0,017.8,0000.0,0003.49,0015.30,0002.38
2024-06-02 00:31:00,SystemResetWarning,0825.6,5.00,000.00,028.9,026.8,000.0,037.6,030.3,017.6,0000.0,0003.50,0015.03,0002.39
2024-06-02 00:32:00,SystemResetWarning,0825.6,5.00,000.00,029.0,027.2,000.0,037.6,030.5,017.4,0000.0,0003.51,0014.52,0002.39
2024-06-02 00:33:00,SystemResetWarning,0825.6,5.00,000.00,029.0,027.6,000.0,037.5,030.7,018.4,0000.0,0003.53,0013.24,0002.40
2024-06-02 00:34:00,SystemResetWarning,0825.7,5.00,000.00,029.1,028.0,000.0,037.5,030.8,018.3,0000.0,0003.52,0012.84,0002.40
2024-06-02 00:35:00,SystemResetWarning,0825.6,5.00,000.00,029.2,028.2,000.0,037.5,030.9,018.0,0000.0,0003.50,0013.28,0002.39
2024-06-02 00:36:00,SystemResetWarning,0825.6,5.00,000.00,029.2,028.5,000.0,037.5,031.0,018.0,0000.0,0003.44,0012.38,0002.38
2024-06-02 00:37:00,SystemResetWarning,0825.6,5.00,000.00,029.3,028.7,000.0,037.6,031.1,018.7,0000.0,0003.45,0011.89,0002.38
2024-06-02 00:38:00,SystemResetWarning,0825.7,5.00,000.00,029.4,028.8,000.0,037.6,031.2,018.2,0000.0,0003.42,0011.09,0002.37
2024-06-02 00:39:00,SystemResetWarning,0825.6,5.00,000.00,029.5,029.0,000.0,037.6,031.3,018.4,0000.0,0003.41,0012.13,0002.38
2024-06-02 00:40:00,SystemResetWarning,0825.6,4.99,000.00,029.6,029.1,000.0,037.7,031.4,018.1,0000.0,0003.44,0011.83,0002.40
2024-06-02 00:41:00,SystemResetWarning,0825.6,4.99,000.00,029.6,029.2,000.0,037.7,031.5,018.3,0000.0,0003.46,0011.65,0002.44
2024-06-02 00:42:00,SystemResetWarning,0825.6,5.00,000.00,029.7,029.3,000.0,037.8,031.5,018.4,0000.0,0003.48,0012.14,0002.46
2024-06-02 00:43:00,SystemResetWarning,0825.6,5.00,000.00,029.8,029.4,000.0,037.8,031.6,018.2,0000.0,0003.49,0012.42,0002.49
2024-06-02 00:44:00,SystemResetWarning,0825.6,5.00,000.00,029.8,029.5,000.0,037.9,031.7,017.8,0000.0,0003.51,0013.09,0002.51
2024-06-02 00:45:00,SystemResetWarning,0825.6,5.00,000.00,029.9,029.6,000.0,037.9,031.8,017.5,0000.0,0003.53,0013.66,0002.52
2024-06-02 00:46:00,SystemResetWarning,0825.6,5.01,000.00,030.0,029.5,000.0,038.0,031.8,017.6,0000.0,0003.55,0014.09,0002.55
2024-06-02 00:47:00,SystemResetWarning,0825.6,4.99,000.00,029.8,027.7,000.0,038.1,030.8,017.8,0000.0,0003.59,0013.07,0002.58
2024-06-02 00:48:00,SystemResetWarning,0825.5,5.02,000.00,029.4,026.6,000.0,038.1,030.3,018.1,0000.0,0003.59,0014.36,0002.59
2024-06-02 00:49:00,SystemResetWarning,0825.5,5.00,000.00,029.3,027.0,000.0,038.0,030.4,018.0,0000.0,0003.61,0015.90,0002.61
2024-06-02 00:50:00,SystemResetWarning,0825.6,5.00,000.00,029.3,027.3,000.0,037.9,030.6,018.4,0000.0,0003.70,0016.69,0002.66
2024-06-02 00:51:00,SystemResetWarning,0825.6,5.00,000.00,029.4,027.7,000.0,037.8,030.9,018.7,0000.0,0003.72,0016.71,0002.69
2024-06-02 00:52:00,SystemResetWarning,0825.6,5.00,000.00,029.4,028.0,000.0,037.8,031.0,018.0,0000.0,0003.72,0016.32,0002.69
2024-06-02 00:53:00,SystemResetWarning,0825.6,5.00,000.00,029.5,028.3,000.0,037.8,031.2,018.2,0000.0,0003.70,0015.92,0002.68
2024-06-02 00:54:00,SystemResetWarning,0825.6,4.99,000.00,029.5,028.6,000.0,037.8,031.3,018.0,0000.0,0003.75,0018.08,0002.69
2024-06-02 00:55:00,SystemResetWarning,0825.7,4.99,000.00,029.6,028.8,000.0,037.9,031.4,017.6,0000.0,0003.74,0018.16,0002.69
2024-06-02 00:56:00,SystemResetWarning,0825.7,5.00,000.00,029.7,029.0,000.0,037.9,031.4,017.8,0000.0,0003.72,0018.47,0002.70
2024-06-02 00:57:00,SystemResetWarning,0825.8,5.00,000.00,029.7,029.1,000.0,037.9,031.5,017.9,0000.0,0003.73,0017.89,0002.70
2024-06-02 00:58:00,SystemResetWarning,0825.8,5.00,000.00,029.8,029.3,000.0,038.0,031.6,017.4,0000.0,0003.73,0018.02,0002.68
2024-06-02 00:59:00,SystemResetWarning,0825.8,5.01,000.00,029.9,029.4,000.0,038.0,031.7,017.0,0000.0,0003.75,0017.29,0002.69
